499P/Catalina (2019)

Japanese version
Home page
Updated on March 29, 2025

---------------------------------------------------------------------

* Profile

Designation 499P/2019 Y3
Discovery Date December 17, 2019
Magnitude 18.6 mag
Discoverer Kacper W. Wierzchos (Catalina Sky Survey)

* Pictures

* Orbital Elements

                    Epoch = 2019 Dec. 23.0 TT
     T = 2019 Dec. 13.46014 TT        Peri. =   2.26754
     e = 0.6959101                    Node  = 139.38641 2000.0
     q = 0.9120295 AU                 Incl. =  24.63618
       a =  2.9992101 AU   n = 0.18975523   P =   5.19 years

* Magnitudes Graph

        m1 = 18.5 + 5 log d + 10.0 log r

---------------------------------------------------------------------

The orbital elements are printed on CBET 5504.
The magnitudes graphs are made with Comet for Windows.

---------------------------------------------------------------------

Copyright(C) Seiichi Yoshida (comet@aerith.net). All rights reserved.